Location: San Martino di Castrozza
(46.2667°N, 11.8000°E)
Time: 16:29:59
(UTC+00:00)

ARIANE 5 R/B - Pass Details

Date: 23 April 2021
Orbit: 749 x 794 km, 98.7° (Epoch: 12 May)

Event Time Altitude Azimuth Distance (km) Brightness Sun altitude
Rises 03:33:48 0° 4° (N) 3,308 6.2 -6.9°
Reaches altitude 10° 03:36:26 10° 353° (N) 2,373 5.3 -6.5°
Maximum altitude 03:40:46 27° 297° (WNW) 1,481 3.7 -5.8°
Drops below altitude 10° 03:45:04 10° 241° (WSW) 2,349 4.3 -5.2°
Enters shadow 03:46:15 - 235° (SW) 2,751 4.7 -5.0°
